Location: Newark
(39.3200°N, 15.5900°E)
Time: 05:23:06
(UTC+00:00)

Envisat - Visible Passes

Search period start: 19 November 2019 00:00
Search period end: 29 November 2019 00:00
Orbit: 764 x 766 km, 98.1° (Epoch: 18 November)

Date Brightness Start Highest point End Pass type
(mag) Time Alt. Az. Time Alt. Az. Time Alt. Az.
19 Nov 6.3 04:25:57 10° ENE 04:27:44 12° E 04:29:30 10° ESE visible
19 Nov 3.5 17:15:36 10° S 17:20:37 63° W 17:25:40 10° NNW visible
20 Nov 3.0 16:38:56 10° SSE 16:43:53 58° ENE 16:48:52 10° N visible
20 Nov 5.9 18:20:19 10° SW 18:23:15 15° W 18:26:13 10° NW visible
21 Nov 5.8 04:49:38 10° NE 04:53:30 22° E 04:57:20 10° SE visible
21 Nov 3.9 16:03:11 10° ESE 16:07:21 26° ENE 16:11:31 10° NNE visible
21 Nov 4.6 17:41:35 10° SSW 17:46:12 35° W 17:50:50 10° NNW visible
22 Nov 3.1 17:04:16 10° S 17:09:20 80° WSW 17:14:27 10° NNW visible
23 Nov 4.7 05:14:25 10° NNE 05:19:09 38° E 05:23:51 10° SSE visible
23 Nov 3.3 16:27:51 10° SE 16:32:40 45° ENE 16:37:29 10° N visible
23 Nov 5.5 18:08:14 10° SW 18:11:53 20° W 18:15:32 10° NW visible
24 Nov 6.0 04:38:52 10° NE 04:42:07 17° E 04:45:21 10° SE visible
24 Nov 4.1 17:30:03 10° S 17:34:52 44° W 17:39:44 10° NNW visible
25 Nov 2.9 16:53:00 10° SSE 16:58:04 81° ENE 17:03:10 10° N visible
25 Nov 6.2 18:36:42 10° W 18:37:40 10° W 18:38:37 10° WNW visible
26 Nov 5.2 05:03:23 10° NE 05:07:50 30° E 05:12:15 10° SSE visible
26 Nov 3.5 16:16:52 10° SE 16:21:27 36° ENE 16:26:03 10° N visible
26 Nov 5.2 17:56:23 10° SSW 18:00:30 25° W 18:04:41 10° NW visible
27 Nov 6.2 04:28:24 10° ENE 04:30:44 13° E 04:33:03 10° ESE visible
27 Nov 3.6 17:18:35 10° S 17:23:34 57° W 17:28:35 10° NNW visible
28 Nov 2.9 16:41:49 10° SSE 16:46:49 63° ENE 16:51:51 10° N visible
28 Nov 6.0 18:23:40 10° WSW 18:26:15 14° W 18:28:50 10° WNW visible
